星链-30771 (STARLINK-30771 )

导读 | 豆包AI

STARLINK-30771是美国SpaceX公司星链(Starlink)项目的近地轨道通信卫星,于2023年10月29日发射升空。星链项目旨在通过部署近地轨道卫星群,为全球提供高速互联网接入服务,重点覆盖偏远地区、海洋等网络基础设施薄弱区域。STARLINK-30771作为星链星座的组成部分,采用低轨设计,配合星座组网可降低通信延迟,提升全球网络覆盖能力,支撑星链系统面向个人、企业及特殊场景提供宽带服务,是SpaceX推进全球卫星互联网建设的一环。

基本信息
目录编号:
58169
目录名称:
STARLINK-30771
国际标识:
2023-166V
轨道中心:
EARTH
卫星名称:
星链-30771
卫星全名:
星链-30771 (STARLINK-30771 )
卫星状态:
在轨 (已飞行914 天)
发射日期:
2023-10-29 UTC
国别 :
美国 (US)
星等 :
--
轨道信息
数据来源 国际轨道数据 AOE轨道数据
星历时间 2026-04-30T09:06:58+0800
18小时前
查看轨道信息
2026-04-30T05:00:00+0800
23小时前
查看轨道信息
半长轴 6853.359km 6853.344km
偏心率 0.0001087 0.0000935
轨道倾角 53.162° 53.161°
近地点辐角 93.774° 87.840°
升交点赤经 340.969° 341.765°
平近点角 266.339° 46.983°
近地点 474.477km 474.566km
远地点 475.967km 475.848km
周期 94.105分钟 94.105分钟
每日圈数 15.30198 15.302028
详细信息
固有亮度:
5
最大亮度:
0.3
卫星平台:
Starlink v2.0 mini
覆盖范围:
全球
运营商:
太空探索技术公司
运营商所在国:
美国
制造商(研发单位):
太空探索技术公司
制造商所在国:
美国
使用方式:
暂无
卫星简介
星链(Starlink)计划是由太空探索技术公司(SpaceX)提出的一个巨型低轨卫星互联网星座项目,计划在2019年至2024年间在太空搭建由约1.2万颗卫星组成的“星链”网络,其中1584颗将部署在地球上空550千米处的近地轨道,并从2020年开始工作。该卫星仍在工作。
2D轨道图
3D轨道图
轨道高度分析图
轨道倾角分析图
轨道综合分析图
查看轨道综合分析图